Location: *
(57.8420°S, 159.8600°W)
Time: 04:22:12
(UTC+00:00)

YAOGAN 6 - Pass Details

Date: 18 May 2021
Orbit: 463 x 503 km, 97.0° (Epoch: 23 June)

Event Time Altitude Azimuth Distance (km) Brightness Sun altitude
Exits shadow 03:25:39 - 149° (SSE) 2,006 5.2 -7.6°
Reaches altitude 10° 03:26:37 10° 141° (SE) 1,670 4.7 -7.7°
Maximum altitude 03:29:26 21° 89° (E) 1,120 3.9 -8.1°
Drops below altitude 10° 03:32:15 10° 37° (NE) 1,663 5.1 -8.4°
Sets 03:34:40 0° 20° (NNE) 2,539 6.3 -8.7°
